QPF
0.81 1.25 0.54 0.30 0.54 0.30 0.07 0.00 0.00 0.00 0.00 0.00 0.00 0.00 0.00 0.00 0.00 0.00 0.00 0.00 0.00 0.00 0.00 0.00 0.00 0.00 0.00 0.00 0.00 0.00 0.00 0.00
0.12 0.41 0.19 0.09 0.29 0.31 0.12 0.01 0.00 0.00 0.01 0.02 0.00 0.00 0.00 0.00 0.00 0.00 0.00 0.00 0.00 0.00 0.00 0.00 0.00 0.00 0.00 0.00 0.00 0.00 0.00 0.00
0.02 0.09 0.13 0.05 0.09 0.21 0.17 0.11 0.01 0.00 0.06 0.08 0.01 0.00 0.00 0.00 0.00 0.00 0.00 0.00 0.00 0.00 0.00 0.00 0.00 0.00 0.00 0.00 0.00 0.00 0.00 0.00
0.01 0.03 0.09 0.18 0.23 0.31 0.17 0.07 0.01 0.00 0.05 0.09 0.02 0.00 0.00 0.00 0.00 0.00 0.00 0.00 0.00 0.00 0.00 0.00 0.00 0.00 0.00 0.00 0.00 0.00 0.00 0.00
0.00 0.04 0.01 0.09 0.16 0.67 0.57 0.13 0.02 0.02 0.03 0.07 0.04 0.00 0.00 0.00 0.00 0.00 0.00 0.00 0.00 0.00 0.00 0.00 0.00 0.00 0.00 0.00 0.00 0.00 0.00 0.00
0.00 0.00 0.01 0.03 0.10 0.37 0.67 0.28 0.04 0.02 0.03 0.12 0.07 0.00 0.00 0.00 0.00 0.00 0.00 0.00 0.00 0.00 0.00 0.00 0.00 0.00 0.00 0.00 0.00 0.00 0.00 0.00
0.00 0.00 0.01 0.04 0.14 0.37 0.48 0.09 0.05 0.05 0.05 0.12 0.06 0.00 0.00 0.00 0.00 0.00 0.00 0.00 0.00 0.00 0.00 0.00 0.00 0.00 0.00 0.00 0.00 0.00 0.00 0.00
0.00 0.00 0.00 0.10 0.27 0.25 0.38 0.10 0.01 0.03 0.06 0.08 0.06 0.00 0.00 0.00 0.00 0.00 0.00 0.00 0.00 0.00 0.00 0.00 0.00 0.00 0.00 0.00 0.00 0.00 0.00 0.00
0.00 0.00 0.00 0.22 0.37 0.34 0.32 0.21 0.07 0.02 0.04 0.04 0.10 0.01 0.00 0.00 0.00 0.00 0.00 0.00 0.00 0.00 0.00 0.00 0.00 0.00 0.00 0.00 0.00 0.00 0.00 0.00
0.01 0.00 0.00 0.18 0.42 0.39 0.34 0.31 0.15 0.03 0.04 0.08 0.13 0.03 0.00 0.00 0.00 0.00 0.00 0.00 0.00 0.00 0.00 0.00 0.00 0.00 0.00 0.00 0.00 0.00 0.00 0.00
0.02 0.03 0.02 0.10 0.22 0.25 0.33 0.29 0.15 0.05 0.04 0.06 0.04 0.02 0.00 0.00 0.00 0.00 0.00 0.00 0.00 0.00 0.00 0.00 0.00 0.00 0.00 0.00 0.00 0.00 0.00 0.00
0.01 0.02 0.02 0.04 0.05 0.11 0.10 0.09 0.08 0.03 0.02 0.02 0.01 0.01 0.00 0.00 0.00 0.00 0.00 0.00 0.00 0.00 0.00 0.00 0.00 0.00 0.00 0.00 0.00 0.00 0.00 0.00
0.01 0.02 0.07 0.11 0.01 0.06 0.04 0.02 0.02 0.01 0.01 0.01 0.01 0.01 0.01 0.01 0.00 0.00 0.00 0.00 0.00 0.00 0.00 0.01 0.01 0.00 0.00 0.00 0.00 0.00 0.00 0.00
0.00 0.01 0.06 0.05 0.01 0.04 0.07 0.03 0.01 0.00 0.00 0.01 0.01 0.00 0.01 0.01 0.00 0.00 0.00 0.00 0.00 0.00 0.00 0.02 0.01 0.00 0.00 0.00 0.00 0.00 0.00 0.00
0.00 0.00 0.08 0.08 0.01 0.01 0.04 0.08 0.02 0.01 0.00 0.00 0.00 0.00 0.00 0.01 0.01 0.00 0.00 0.00 0.00 0.00 0.00 0.00 0.01 0.00 0.00 0.00 0.00 0.00 0.00 0.00
0.00 0.00 0.01 0.02 0.00 0.00 0.01 0.01 0.02 0.00 0.00 0.00 0.00 0.00 0.00 0.02 0.01 0.01 0.00 0.00 0.00 0.01 0.01 0.01 0.01 0.01 0.00 0.00 0.00 0.00 0.00 0.00
0.00 0.00 0.00 0.00 0.00 0.00 0.00 0.00 0.00 0.00 0.00 0.00 0.00 0.00 0.00 0.01 0.02 0.02 0.02 0.01 0.04 0.03 0.01 0.02 0.03 0.03 0.02 0.01 0.00 0.00 0.00 0.00
0.00 0.00 0.00 0.00 0.00 0.00 0.00 0.00 0.00 0.00 0.00 0.00 0.00 0.00 0.00 0.00 0.00 0.00 0.00 0.00 0.01 0.01 0.03 0.04 0.04 0.04 0.03 0.01 0.01 0.01 0.02 0.03
0.00 0.00 0.00 0.00 0.00 0.00 0.00 0.00 0.00 0.00 0.00 0.00 0.00 0.00 0.00 0.00 0.00 0.00 0.00 0.00 0.00 0.00 0.00 0.02 0.04 0.02 0.02 0.03 0.04 0.03 0.01 0.01
0.00 0.00 0.00 0.00 0.00 0.00 0.00 0.00 0.00 0.00 0.00 0.00 0.00 0.00 0.00 0.00 0.00 0.00 0.00 0.00 0.00 0.00 0.00 0.00 0.01 0.03 0.04 0.04 0.06 0.02 0.01 0.01
MSLP
1010.16 1010.35 1011.57 1012.30 1012.76 1012.75 1012.43 1012.97 1013.28 1013.79 1014.50 1014.83 1015.55 1016.45 1017.41 1017.98 1018.67 1019.28 1019.88 1020.48 1020.79 1021.11 1021.59 1022.11 1022.68 1023.18 1023.64 1023.99 1024.10 1024.09 1023.74 1024.13
1012.15 1011.70 1011.82 1012.51 1012.74 1012.68 1012.52 1013.14 1013.44 1013.86 1014.17 1015.31 1015.93 1016.35 1017.37 1018.33 1018.87 1019.70 1020.16 1020.66 1021.05 1021.36 1021.80 1022.36 1022.95 1023.52 1023.94 1024.38 1024.45 1024.54 1024.25 1024.43
1012.19 1012.19 1012.15 1012.25 1012.52 1012.68 1012.98 1013.30 1013.55 1013.84 1014.51 1015.69 1016.15 1016.75 1017.39 1018.37 1019.21 1020.09 1020.44 1021.01 1021.36 1021.61 1022.20 1022.71 1023.27 1023.78 1024.34 1024.56 1024.72 1024.32 1024.93 1024.96
1011.29 1011.97 1012.22 1012.35 1012.53 1012.62 1013.05 1014.12 1013.89 1013.78 1014.46 1015.60 1016.23 1017.29 1017.33 1018.52 1019.83 1020.39 1020.88 1021.31 1021.64 1022.05 1022.38 1023.09 1023.26 1023.73 1024.24 1024.59 1024.46 1024.51 1024.97 1025.11
1011.10 1011.61 1011.66 1012.27 1012.78 1013.00 1013.62 1014.39 1014.17 1014.08 1014.27 1015.53 1016.14 1017.64 1018.11 1018.77 1019.81 1020.52 1021.10 1021.42 1021.78 1022.22 1022.91 1022.97 1023.28 1023.39 1023.94 1024.41 1024.56 1024.76 1025.23 1025.44
1010.92 1011.16 1011.42 1012.01 1012.81 1012.60 1012.76 1013.41 1014.83 1014.48 1014.08 1015.60 1016.12 1017.71 1018.18 1018.66 1019.48 1020.31 1020.79 1021.34 1021.76 1022.46 1022.86 1023.25 1023.47 1023.54 1024.11 1024.62 1024.74 1024.59 1025.04 1025.37
1011.12 1011.31 1011.43 1011.80 1012.38 1012.66 1012.64 1013.09 1013.69 1014.81 1014.73 1015.45 1015.81 1017.42 1018.28 1018.75 1019.47 1020.09 1020.87 1021.31 1021.92 1022.33 1022.86 1023.49 1023.16 1023.84 1024.39 1024.93 1024.84 1025.21 1025.54 1025.65
1011.09 1011.34 1011.31 1011.14 1011.10 1011.29 1011.77 1012.30 1013.19 1014.49 1014.96 1015.22 1015.73 1017.51 1018.32 1018.80 1019.43 1019.98 1020.97 1021.17 1022.06 1022.04 1022.62 1023.24 1023.70 1023.91 1024.59 1024.94 1024.97 1025.24 1025.65 1025.68
1011.20 1011.38 1011.32 1010.72 1009.24 1008.89 1010.34 1012.12 1012.93 1014.02 1014.61 1015.39 1015.80 1017.54 1018.26 1018.84 1019.46 1020.07 1020.84 1021.25 1022.18 1022.48 1023.08 1023.49 1023.72 1024.03 1024.56 1025.03 1025.30 1025.54 1025.61 1025.75
1011.19 1011.37 1011.21 1010.76 1009.72 1009.26 1010.26 1011.75 1012.84 1013.84 1014.59 1015.38 1016.43 1017.33 1018.00 1018.72 1019.55 1019.94 1020.89 1021.41 1021.77 1022.23 1023.03 1023.70 1023.86 1024.17 1024.62 1024.97 1025.36 1025.66 1025.64 1025.71
1011.16 1011.46 1011.57 1011.23 1010.88 1010.91 1010.95 1012.04 1013.02 1014.03 1014.96 1015.80 1016.67 1017.12 1018.03 1018.73 1019.53 1020.35 1021.00 1021.60 1021.93 1021.93 1023.03 1023.26 1023.77 1024.01 1024.32 1024.97 1025.31 1025.61 1025.79 1025.91
1011.41 1011.70 1011.96 1011.94 1011.95 1012.09 1012.33 1013.10 1013.82 1014.56 1015.49 1016.17 1016.65 1017.16 1017.94 1018.89 1019.67 1020.40 1021.00 1021.54 1022.02 1021.95 1022.79 1023.37 1023.58 1023.82 1024.17 1025.02 1025.27 1025.67 1025.93 1025.94
1011.60 1011.86 1012.05 1012.34 1012.67 1012.82 1013.19 1013.70 1014.75 1015.62 1015.99 1016.21 1016.72 1017.27 1017.86 1018.81 1019.48 1020.34 1020.90 1021.57 1021.48 1021.75 1022.89 1023.33 1023.84 1024.16 1024.31 1025.04 1025.44 1025.65 1025.83 1025.87
1011.62 1011.96 1012.29 1012.57 1012.93 1013.41 1013.78 1014.34 1014.97 1015.36 1015.92 1016.56 1016.89 1017.23 1017.75 1018.77 1019.21 1020.04 1020.66 1021.32 1021.60 1021.82 1022.29 1023.15 1023.67 1023.99 1023.88 1024.30 1024.74 1025.24 1025.13 1025.37
1011.63 1011.88 1012.35 1012.69 1013.04 1013.62 1014.00 1014.70 1015.23 1015.76 1016.21 1016.32 1016.46 1016.89 1017.77 1018.80 1019.56 1019.79 1020.55 1020.77 1021.21 1021.56 1022.17 1022.49 1022.97 1023.67 1023.56 1023.31 1024.05 1023.56 1023.98 1024.57
1011.68 1012.01 1012.45 1012.70 1013.09 1013.40 1013.82 1014.19 1014.64 1015.08 1015.37 1015.97 1016.37 1016.98 1017.91 1018.64 1019.32 1019.77 1019.98 1020.61 1021.01 1021.29 1021.69 1022.15 1022.51 1022.72 1023.49 1023.36 1023.52 1023.20 1023.18 1023.52
1011.44 1012.08 1012.49 1012.77 1013.09 1013.31 1013.62 1014.26 1014.83 1015.02 1015.47 1016.15 1016.42 1016.89 1017.57 1018.15 1019.28 1019.87 1020.17 1020.09 1020.30 1021.00 1021.41 1021.92 1022.05 1022.18 1022.41 1022.82 1023.36 1023.41 1023.44 1023.09
1011.06 1011.66 1012.19 1012.65 1013.09 1013.34 1013.68 1014.03 1014.58 1014.91 1015.55 1016.03 1016.14 1016.64 1017.46 1018.36 1018.68 1018.85 1019.04 1019.35 1019.97 1020.40 1020.71 1021.23 1021.37 1021.80 1021.80 1022.15 1022.15 1022.31 1022.63 1022.73
1010.61 1011.18 1011.79 1012.43 1012.85 1013.33 1013.81 1014.01 1014.44 1014.74 1015.10 1015.57 1016.12 1016.73 1017.29 1017.71 1018.26 1018.64 1018.78 1018.82 1019.09 1019.60 1020.05 1020.50 1020.65 1020.81 1021.01 1021.16 1021.40 1021.47 1021.63 1021.96
1010.01 1010.60 1011.12 1011.80 1012.21 1012.91 1013.57 1013.85 1014.25 1014.60 1014.96 1015.39 1015.78 1016.02 1016.57 1016.92 1017.45 1017.74 1017.92 1018.19 1018.52 1018.88 1019.26 1019.47 1019.67 1019.88 1020.15 1020.29 1020.47 1020.75 1020.76 1020.72
Thickness
5647 5640 5631 5639 5638 5650 5662 5663 5666 5665 5665 5666 5664 5662 5659 5656 5656 5653 5647 5643 5643 5644 5642 5640 5637 5634 5631 5629 5629 5628 5631 5627
5626 5633 5637 5640 5642 5649 5656 5658 5658 5660 5662 5657 5657 5659 5657 5651 5651 5645 5641 5638 5637 5638 5637 5633 5631 5627 5623 5620 5621 5620 5621 5620
5626 5628 5633 5638 5640 5644 5648 5651 5654 5654 5654 5651 5651 5652 5652 5648 5643 5638 5636 5632 5631 5632 5629 5626 5622 5619 5615 5614 5613 5617 5610 5610
5636 5629 5629 5632 5636 5640 5638 5639 5645 5651 5651 5647 5646 5642 5647 5643 5635 5633 5629 5627 5626 5624 5624 5619 5618 5614 5611 5609 5609 5610 5606 5607
5636 5632 5633 5629 5628 5633 5631 5630 5636 5645 5648 5643 5641 5634 5636 5638 5631 5626 5623 5621 5620 5618 5615 5614 5615 5613 5608 5604 5604 5601 5598 5598
5634 5633 5633 5627 5622 5628 5628 5631 5628 5634 5646 5637 5637 5629 5632 5636 5628 5623 5621 5616 5614 5611 5611 5609 5607 5607 5603 5599 5598 5599 5596 5595
5629 5628 5626 5622 5617 5618 5623 5627 5631 5628 5635 5632 5636 5628 5627 5630 5623 5620 5615 5613 5610 5609 5606 5602 5606 5602 5596 5593 5594 5589 5588 5588
5628 5624 5620 5618 5620 5622 5623 5627 5628 5624 5626 5632 5632 5624 5623 5623 5618 5617 5609 5609 5603 5607 5603 5600 5597 5596 5591 5587 5588 5587 5585 5586
5624 5622 5616 5616 5629 5630 5626 5622 5623 5624 5626 5625 5628 5620 5619 5617 5614 5611 5605 5605 5600 5597 5595 5593 5591 5589 5586 5582 5579 5580 5580 5581
5622 5621 5618 5613 5621 5623 5625 5621 5623 5623 5622 5623 5619 5617 5616 5614 5609 5607 5601 5598 5597 5595 5590 5586 5584 5582 5579 5576 5573 5573 5576 5578
5621 5619 5616 5611 5613 5616 5620 5619 5619 5619 5617 5616 5614 5615 5612 5609 5604 5600 5597 5593 5591 5593 5585 5584 5579 5577 5576 5572 5572 5570 5572 5572
5617 5615 5613 5610 5609 5608 5614 5612 5613 5612 5611 5610 5612 5611 5608 5604 5599 5595 5590 5588 5584 5587 5582 5577 5576 5575 5573 5569 5569 5568 5568 5568
5614 5612 5612 5610 5606 5606 5608 5610 5606 5604 5604 5607 5608 5606 5605 5599 5596 5590 5587 5582 5584 5585 5576 5573 5568 5566 5568 5564 5564 5564 5564 5564
5612 5611 5609 5609 5608 5604 5606 5606 5605 5605 5603 5601 5602 5603 5602 5595 5592 5587 5583 5579 5579 5578 5575 5568 5565 5564 5568 5569 5567 5565 5565 5563
5612 5610 5608 5607 5607 5604 5603 5600 5599 5599 5600 5602 5603 5603 5597 5590 5583 5583 5579 5578 5576 5574 5570 5570 5568 5565 5567 5574 5566 5573 5569 5564
5609 5608 5605 5604 5604 5603 5602 5602 5601 5602 5603 5600 5601 5598 5593 5588 5581 5577 5578 5574 5571 5572 5570 5569 5568 5570 5564 5567 5565 5570 5571 5568
5612 5607 5605 5603 5601 5600 5599 5598 5598 5598 5596 5594 5595 5594 5589 5585 5576 5572 5570 5573 5574 5570 5569 5568 5568 5569 5568 5565 5561 5561 5560 5564
5619 5613 5609 5606 5602 5600 5597 5596 5594 5594 5590 5590 5592 5589 5584 5577 5575 5576 5579 5577 5577 5572 5570 5568 5569 5567 5568 5564 5565 5564 5562 5556
5622 5618 5613 5608 5605 5601 5598 5598 5596 5594 5593 5591 5590 5586 5583 5582 5579 5578 5579 5579 5577 5573 5571 5570 5570 5569 5567 5565 5562 5563 5561 5554
5626 5621 5618 5612 5610 5604 5599 5599 5597 5595 5594 5591 5590 5592 5589 5588 5583 5582 5580 5578 5577 5575 5574 5574 5573 5570 5566 5566 5562 5560 5558 5556